Retour au catalogue

STARLINK-4738

ActifCommunicationsVLEO
NORAD 53819·PAYLOAD·🇺🇸 United States

Lancé Sep 19, 2022 depuis Cape Canaveral Space Force Station

Loading…

Prochains Passages (prochaines 24 heures)

TLE

FraisSource: CelesTrak SupGP

Époque: Sep 14, 2026, 20:44 UTC

1 53819C 22114B   26257.86437500 -.00030783  00000+0 -98971-3 0  2577
2 53819  53.1586 162.0629 0001733  92.7327 294.1857 15.31723055    15

Suivez STARLINK-4738 en temps réel avec AllMySat

Download on the App Store